Volver al catálogo

FENGYUN 1C DEB

ActivoSSO
NORAD 35139·DEBRIS·🇨🇳 China

Lanzado May 10, 1999 desde Taiyuan Satellite Launch Center

Loading…

Próximos Pases (próximas 24 horas)

TLE

EnvejeciendoSource: Space-Track

Época: Sep 7, 2026, 05:23 UTC

1 35139U 99025DLT 26250.22456185  .00000376  00000-0  18735-3 0  9997
2 35139  98.5874 253.0522 0067396 238.5198 120.9382 14.21487796679679

Sigue FENGYUN 1C DEB en tiempo real con AllMySat

Download on the App Store